Location: Aranbee
(34.0885°N, 118.2342°W)
Time: 00:48:15
(UTC+00:00)

A-11 Canister half - Pass Details

Date: 29 July 2021
Orbit: 1515 x 1685 km, 47.2° (Epoch: 22 September)

Event Time Altitude Azimuth Distance (km) Brightness Sun altitude
Rises 04:16:09 0° 283° (WNW) 4,859 12.9 -15.1°
Reaches altitude 10° 04:19:37 10° 291° (WNW) 3,894 12.4 -15.7°
Maximum altitude 04:28:48 39° 358° (N) 2,353 10.3 -17.2°
Drops below altitude 10° 04:38:07 10° 64° (ENE) 3,950 10.9 -18.7°
Sets 04:41:40 0° 72° (ENE) 4,936 11.4 -19.3°
